Theta_e
347 347 348 347 345 344 341 340 341 339 333 332 327 321 323 327 330 331 330 329 328 329 331 335 336 336 336 335 335 336 337 336 334 333 333 336 340 340 338 336 336 338 339 339 338 337 336 335 334 334 335 334 332 332 331 331 332 331 333 334 333 333 333 332 332 332 332 331 331 331 331 331 332 333 335 336 335 334 333 334 335 336 336 337 338
346 347 349 346 345 343 340 341 341 339 333 331 325 320 325 328 331 330 329 329 329 330 333 336 338 338 338 338 338 339 338 336 335 335 337 339 340 339 338 336 338 341 340 340 340 339 336 334 334 335 335 334 333 332 330 329 330 332 334 334 333 333 333 333 332 330 331 332 330 330 330 330 332 333 335 336 335 335 334 334 334 335 335 335 337
344 347 347 345 344 341 340 341 341 338 332 331 324 320 326 330 331 329 327 327 330 334 336 336 338 339 338 339 339 340 339 339 338 338 339 340 340 340 339 336 338 341 340 340 341 340 337 335 335 335 335 334 334 332 330 328 330 333 334 333 333 332 331 332 331 327 328 330 330 330 330 330 331 332 334 335 335 335 334 334 334 334 334 333 334
344 347 346 346 344 340 341 341 341 337 332 330 322 321 328 331 329 327 325 325 330 336 338 337 338 338 338 339 339 340 340 341 341 341 342 342 341 340 339 337 337 339 339 339 340 339 337 336 336 335 335 336 336 334 332 329 331 334 334 334 334 334 334 333 332 327 325 327 327 328 329 329 330 330 332 333 334 334 334 334 334 334 334 333 331
344 346 345 346 344 342 342 342 341 336 332 329 321 323 330 331 329 328 325 324 329 335 338 338 338 337 337 338 339 339 339 341 342 343 343 343 342 340 340 338 337 337 338 338 339 338 336 336 336 336 337 337 336 335 334 332 334 336 336 336 335 336 337 335 333 329 324 326 328 328 328 328 328 329 329 330 332 332 333 333 334 334 334 334 333
345 346 346 346 345 345 344 342 340 334 332 328 321 325 331 331 330 329 326 325 329 332 336 337 337 337 337 338 338 338 339 339 340 342 343 343 342 341 340 339 338 337 337 336 336 337 336 336 336 338 338 336 336 335 334 334 335 336 336 337 337 336 337 337 335 330 326 327 328 329 328 328 328 328 328 328 329 330 332 333 334 334 333 333 333
345 346 346 345 345 346 344 342 339 334 333 327 322 328 332 331 332 330 327 327 329 331 333 334 336 338 339 338 338 339 341 341 341 342 342 342 341 340 340 340 339 339 338 336 335 334 336 337 338 338 337 336 335 334 334 335 335 335 336 336 337 336 336 337 336 330 327 328 329 329 329 329 329 329 329 329 329 329 330 332 333 333 333 333 332
345 347 346 345 345 346 344 342 338 334 333 326 324 330 332 332 333 331 329 328 329 331 333 334 336 337 339 339 340 341 342 342 341 342 341 341 340 340 340 340 340 339 337 337 335 333 335 337 337 338 337 335 332 333 334 334 334 334 335 334 334 335 334 335 336 331 327 328 328 328 329 330 331 331 330 329 329 329 329 330 332 332 332 332 332
346 346 346 345 345 345 344 342 337 334 332 325 326 332 333 334 334 333 332 329 330 333 335 336 337 337 339 339 340 341 342 341 341 341 341 340 340 339 340 340 339 337 336 337 336 331 333 336 336 337 335 333 331 332 333 333 333 333 333 333 334 334 335 335 335 332 328 327 326 325 326 328 328 329 329 329 328 329 329 329 330 330 331 331 331
346 346 346 346 346 345 343 341 336 334 331 325 328 334 336 337 335 335 334 332 331 334 337 337 338 338 338 338 339 341 341 341 341 340 340 339 339 339 339 340 338 336 336 336 334 329 329 332 334 335 333 331 331 332 332 332 333 333 333 334 334 335 335 335 333 330 329 328 326 325 327 328 328 328 329 329 329 328 328 328 328 329 330 330 330
345 346 346 345 346 344 342 340 336 334 330 326 331 335 337 338 336 337 336 334 333 334 336 336 337 337 338 338 338 340 340 340 340 340 339 337 337 339 339 339 337 336 337 336 333 329 325 328 331 331 330 330 331 331 332 333 333 333 333 335 334 334 335 334 331 329 329 328 327 326 328 329 329 329 329 329 329 329 329 328 328 329 329 329 329
345 346 345 346 346 342 340 338 335 333 330 328 334 337 338 337 337 338 337 336 334 334 334 334 336 337 338 337 337 339 340 340 340 339 337 335 337 339 339 338 337 337 338 336 333 330 325 325 328 329 330 330 331 332 332 333 333 332 334 335 334 334 334 331 329 328 329 328 326 325 328 329 329 329 329 329 329 328 328 328 328 328 328 328 328
345 345 345 346 345 342 340 337 335 334 330 332 336 339 339 338 338 340 338 335 333 333 331 332 335 337 337 336 337 338 339 340 338 338 336 336 336 338 338 337 337 337 337 335 334 332 326 324 327 329 330 331 332 332 333 332 332 332 334 335 334 333 332 330 329 328 328 327 324 323 326 328 329 329 329 329 329 328 328 328 328 328 327 327 326
345 345 345 345 345 343 339 337 336 334 331 334 337 339 339 338 339 339 338 335 333 332 331 332 334 335 335 335 336 336 337 337 335 335 335 335 336 337 337 337 337 336 336 335 334 333 328 325 328 330 331 332 332 332 332 331 331 333 334 335 334 333 332 330 328 328 327 326 325 323 325 328 329 329 329 329 329 329 328 328 328 327 327 327 327
344 344 345 345 344 343 340 338 337 335 333 335 337 338 339 339 339 339 338 335 335 334 333 332 332 332 333 334 334 334 335 334 334 333 333 334 335 337 336 336 336 335 336 335 333 332 330 327 328 330 331 331 331 331 331 331 331 333 334 335 334 333 332 330 328 327 327 327 327 325 325 328 328 329 330 329 329 328 328 328 328 327 327 327 327
343 344 345 344 344 343 342 340 337 336 334 336 336 336 338 340 340 339 338 336 335 335 333 330 331 333 333 333 334 335 335 334 335 334 334 334 334 335 334 335 335 335 336 336 334 332 330 326 327 328 329 330 329 329 330 330 331 333 334 334 335 334 333 331 329 327 328 328 328 326 325 328 329 329 329 329 328 328 328 327 327 327 327 326 326
343 343 344 343 344 343 342 340 338 336 336 336 335 335 337 340 340 339 338 336 335 333 330 330 333 335 335 336 336 336 335 335 336 335 336 334 333 332 331 331 333 336 336 336 335 333 330 326 326 327 328 328 328 328 329 329 331 332 334 334 334 334 333 332 329 328 329 329 328 327 325 325 327 328 329 328 328 328 328 327 327 326 326 326 326
343 343 343 343 343 343 343 340 339 338 337 337 335 335 337 341 340 339 338 336 334 330 329 332 334 336 336 337 336 336 336 336 337 336 336 334 331 330 329 328 331 336 336 336 336 334 332 328 325 326 328 327 327 327 328 329 331 332 333 334 334 334 333 332 330 329 329 329 328 327 326 324 324 328 329 328 328 328 327 327 326 326 325 326 326
342 342 342 342 343 343 342 340 340 339 337 338 336 335 338 340 340 339 338 335 332 329 330 333 335 336 337 336 336 335 335 337 338 337 336 333 331 331 329 327 330 335 336 336 336 335 334 331 327 325 326 327 327 326 328 330 330 332 332 333 335 334 333 332 330 330 330 329 328 327 328 325 324 328 329 328 328 328 327 327 326 326 325 326 326
342 342 342 342 343 343 342 341 341 339 337 337 336 336 339 340 339 339 337 335 331 330 332 334 336 337 337 336 336 335 335 337 336 336 334 332 333 331 328 326 327 331 335 335 335 335 335 332 329 326 325 326 327 327 329 330 330 331 332 333 334 335 334 332 331 330 329 328 328 328 328 326 326 327 328 328 329 327 327 326 327 325 325 326 326
343 343 342 342 343 343 343 342 341 339 338 337 338 339 341 340 339 339 337 334 330 331 335 336 337 338 337 337 336 335 335 335 334 333 333 333 334 330 326 327 326 329 332 332 333 333 332 331 330 328 326 326 327 329 330 330 330 331 332 332 334 335 334 333 331 330 329 328 328 329 328 327 328 328 327 328 328 327 327 327 327 325 325 325 323
343 343 342 342 342 342 342 341 341 340 338 338 340 340 341 340 339 339 337 332 330 333 337 338 338 338 338 337 337 336 334 334 334 333 333 334 333 328 325 326 327 330 330 328 328 328 328 328 329 329 328 328 329 330 330 329 330 331 332 332 334 335 334 333 332 330 329 328 329 329 328 327 329 329 327 326 325 325 326 325 324 324 324 324 323
344 343 342 342 342 341 342 341 340 339 339 340 341 341 340 339 339 338 334 330 332 336 339 339 339 338 338 337 337 336 334 334 334 333 333 335 332 326 325 326 327 328 326 325 326 325 325 326 327 329 330 330 330 330 329 330 330 331 331 331 333 335 334 333 331 330 329 329 330 329 329 327 327 328 328 327 324 323 324 322 323 323 322 323 323
344 343 342 342 341 341 341 340 340 340 340 340 340 340 340 338 338 336 332 330 334 338 339 340 339 338 338 338 338 336 334 334 335 335 335 334 331 326 325 326 326 326 325 325 326 325 325 326 327 329 331 331 330 330 330 331 330 330 330 331 333 335 335 333 331 329 329 329 330 330 329 326 327 329 330 329 326 324 323 320 321 322 322 322 322
342 343 343 341 341 340 340 340 340 340 338 338 339 340 340 338 336 333 330 332 336 339 339 339 338 338 338 338 337 335 334 335 336 337 336 333 330 327 325 325 326 326 327 327 328 327 326 326 328 329 330 330 330 331 331 331 330 330 330 330 332 335 334 333 331 329 329 330 331 331 328 326 328 330 330 329 328 326 324 318 313 317 321 322 322
342 343 343 341 340 340 340 340 340 339 338 338 339 339 339 338 335 331 330 335 338 338 338 337 338 338 338 337 336 334 334 335 337 337 335 332 329 329 326 325 326 328 330 330 330 329 328 328 329 329 330 331 331 331 330 330 330 330 330 331 332 334 334 333 330 329 329 330 332 332 329 328 329 331 331 331 330 329 327 319 309 312 318 319 321
341 342 342 341 340 340 341 340 339 339 339 337 338 339 339 337 334 331 331 336 338 337 336 336 338 338 337 336 334 334 335 336 337 337 336 331 329 330 329 326 328 330 332 332 331 331 331 331 331 331 331 332 332 331 330 330 330 330 330 331 332 334 334 332 330 329 329 330 331 331 329 329 330 331 331 331 331 329 327 319 309 311 316 319 322
341 341 342 340 339 340 340 338 338 338 337 336 337 339 338 336 334 331 332 335 336 337 335 335 337 337 335 334 333 334 334 336 337 337 336 331 328 331 332 330 330 332 333 333 333 333 333 333 332 332 332 332 332 331 330 329 330 330 330 331 332 333 333 332 330 329 329 329 330 331 329 329 330 332 331 331 331 329 326 319 310 309 313 319 321
340 340 340 339 338 338 337 337 337 336 335 334 335 338 336 335 334 331 333 335 335 336 335 334 336 336 335 334 334 333 333 334 336 336 335 332 330 332 333 333 332 332 332 333 334 334 334 333 332 332 332 332 331 330 329 329 329 329 329 329 330 332 332 332 330 329 329 329 330 331 330 329 331 332 330 331 330 329 327 322 317 314 312 314 315
338 339 338 337 337 337 336 336 336 334 334 334 334 335 332 332 333 332 334 335 335 336 335 334 336 336 334 334 333 332 332 334 335 335 335 333 333 334 334 334 334 333 332 333 334 334 333 332 332 332 332 332 330 330 329 329 329 329 329 329 329 330 331 332 330 329 329 329 331 332 330 329 332 332 330 330 330 329 329 327 324 322 318 313 312
337 338 338 337 338 339 339 338 336 334 333 333 332 331 329 329 331 331 333 334 335 336 334 334 335 335 333 333 334 333 333 334 334 335 335 335 335 335 335 335 335 334 333 333 333 333 332 332 332 332 331 331 330 329 330 329 329 329 328 328 328 329 331 331 330 329 328 329 331 332 330 329 331 332 330 331 330 328 329 329 327 325 323 320 318
338 338 337 337 338 339 339 338 336 334 332 331 329 329 329 328 330 330 332 333 335 335 333 333 335 334 333 334 334 334 334 334 334 335 335 335 335 335 335 335 335 334 333 333 333 332 332 332 331 330 330 330 330 330 330 329 330 329 328 328 328 329 330 331 330 329 329 329 331 332 330 330 330 331 331 330 329 327 328 329 328 327 325 324 323
338 338 337 337 337 337 337 336 335 334 332 329 327 330 331 329 329 330 332 334 334 334 333 334 334 334 333 334 334 334 334 334 334 335 335 335 334 335 334 334 334 333 332 332 332 331 331 331 330 330 331 331 330 330 329 329 329 328 328 327 328 328 329 330 330 328 328 328 330 332 332 330 330 330 331 330 330 328 327 329 329 328 327 326 325
338 337 337 337 337 336 335 335 335 335 333 329 327 331 333 330 331 332 334 334 333 333 334 335 334 334 334 334 333 334 335 335 335 335 335 334 334 334 334 334 333 332 332 332 332 331 331 331 331 332 332 331 330 330 329 329 328 327 327 327 327 329 328 329 329 328 327 327 330 332 332 331 330 330 330 330 330 329 328 327 327 328 328 327 326
337 337 337 337 338 337 335 335 336 335 333 330 328 333 335 333 334 334 334 334 334 334 334 335 334 334 334 334 333 333 334 334 334 334 334 334 334 334 334 333 333 333 332 332 332 332 331 331 331 332 332 331 330 329 329 328 328 327 327 327 327 328 328 329 329 328 326 326 329 331 332 332 331 329 329 330 330 330 328 327 326 327 328 326 326
337 338 337 337 338 337 337 336 336 335 334 331 331 335 336 335 335 335 334 334 334 335 335 335 334 334 335 334 333 333 333 334 334 334 334 333 333 333 333 333 333 333 332 332 332 332 331 331 331 331 331 330 329 329 329 329 328 327 327 327 327 328 328 329 329 328 326 324 328 331 331 332 332 330 330 330 330 330 329 328 326 326 326 326 327
336 338 337 337 337 337 338 337 336 336 334 333 333 336 336 335 335 335 334 334 334 335 335 335 334 334 335 334 334 333 333 334 333 334 334 333 333 333 333 333 333 333 332 332 332 332 331 331 332 331 331 330 329 329 329 328 328 328 327 327 328 328 328 329 330 329 326 324 326 331 332 332 332 331 330 330 330 330 329 329 328 326 327 327 327
336 337 337 337 337 338 337 337 337 336 335 334 334 336 337 336 335 335 335 335 335 335 334 334 334 333 334 334 334 333 333 333 333 333 333 333 333 333 333 333 333 332 331 332 332 331 331 332 332 332 331 330 329 329 328 328 328 328 328 328 328 328 329 329 330 330 327 324 325 329 331 331 331 331 330 330 330 330 330 329 328 327 327 327 327
335 336 336 336 337 337 337 337 337 336 336 335 335 337 337 336 335 335 336 336 335 334 334 334 333 333 333 334 334 333 333 334 334 333 333 333 333 333 333 333 333 332 331 331 331 332 332 333 332 332 332 330 329 329 329 328 329 329 329 329 329 329 329 329 330 330 327 325 325 327 328 328 328 329 330 329 329 329 329 329 328 328 327 327 327
334 335 335 336 337 337 336 337 337 337 337 336 337 337 337 337 336 337 336 335 335 335 335 334 333 334 334 334 333 333 333 334 333 333 333 333 334 333 333 333 333 331 331 331 332 332 333 333 332 331 331 330 329 329 329 329 329 329 330 330 329 329 329 329 330 330 328 326 326 326 326 326 327 329 330 329 329 329 328 328 328 328 327 327 327
334 334 335 335 336 336 336 336 336 337 337 337 337 337 337 337 337 337 336 334 335 335 335 334 333 333 334 334 333 333 334 333 333 333 333 334 334 333 333 333 332 332 332 332 332 333 333 332 331 331 331 330 329 329 329 329 329 330 330 330 330 329 329 329 330 330 330 328 327 328 328 328 329 329 329 328 328 327 327 327 327 327 326 327 326
334 334 335 335 336 336 336 336 336 336 337 336 337 337 337 337 337 336 335 335 335 334 334 334 333 333 333 334 334 334 334 333 333 333 333 334 332 331 332 332 332 332 332 332 332 333 333 332 331 331 331 329 329 329 329 329 329 329 329 329 329 329 328 328 329 329 329 330 330 330 330 329 329 329 328 328 327 327 327 327 327 327 326 326 325
333 334 334 334 335 335 335 335 336 336 336 336 336 336 337 336 336 335 335 335 334 333 333 333 333 333 333 334 334 334 333 333 333 333 333 332 331 330 331 331 331 331 331 332 332 332 332 332 331 331 330 329 329 329 329 329 328 328 328 329 329 329 329 328 328 329 329 329 329 329 329 329 329 329 328 328 327 327 327 328 328 327 327 326 325
333 334 334 334 334 335 335 335 335 336 336 336 336 336 336 336 335 335 335 334 333 333 333 333 333 333 333 333 333 333 332 332 332 331 331 331 331 331 331 331 331 331 331 331 332 332 332 332 332 331 330 330 329 329 329 329 328 327 328 328 327 328 330 328 327 327 328 329 329 329 329 329 329 329 328 328 328 327 327 328 328 328 328 328 327
333 334 334 334 334 334 335 335 335 335 336 336 336 336 336 335 334 334 335 333 332 333 333 333 333 333 333 332 332 331 330 329 329 329 329 330 330 330 330 330 330 330 330 330 331 331 331 331 332 331 331 330 329 329 330 329 328 327 327 327 328 329 329 327 327 327 327 328 328 327 327 327 328 328 328 328 328 328 328 328 328 328 327 327 327
333 333 333 334 334 334 334 334 334 335 336 336 336 335 334 334 334 334 334 332 332 333 332 331 331 331 330 330 330 329 327 327 327 327 327 328 329 328 328 328 329 329 330 330 331 331 331 332 331 331 330 330 329 329 330 329 328 328 327 327 329 329 326 326 328 328 327 327 327 327 326 326 327 327 327 327 327 327 327 327 327 325 325 326 326
333 332 333 334 334 334 334 334 334 334 335 335 334 333 334 335 334 334 333 332 332 332 331 329 328 329 328 328 328 328 327 326 326 326 326 326 327 327 327 327 328 328 329 330 330 331 331 331 331 331 330 330 330 329 330 329 328 328 328 328 329 328 326 326 327 327 327 327 326 326 326 326 326 327 326 326 325 325 326 326 325 324 325 326 326
333 333 333 334 333 334 334 333 333 334 334 333 333 333 334 334 333 332 332 331 332 332 330 329 328 328 328 328 328 328 328 327 326 326 326 326 326 327 326 327 327 327 328 329 329 329 329 330 331 331 330 330 329 329 329 329 329 328 328 328 329 327 326 326 325 326 327 327 327 327 326 326 326 326 326 325 324 324 324 325 325 325 325 325 325
333 333 333 333 333 333 334 333 332 333 333 333 333 333 334 333 331 331 332 331 331 330 329 328 327 326 326 327 327 328 327 326 326 326 325 325 325 325 325 326 326 326 327 327 328 328 328 329 329 329 330 330 329 329 329 329 329 329 328 328 327 326 325 325 325 325 326 327 328 327 326 327 326 326 326 325 324 324 324 324 324 324 324 324 324
333 333 333 333 333 333 333 333 332 333 333 333 333 333 333 331 330 331 330 329 329 329 328 326 326 325 326 326 326 326 326 326 325 325 325 325 325 324 324 325 326 326 326 327 327 328 328 328 328 328 329 329 328 328 329 329 328 329 328 328 326 325 325 325 325 325 324 325 327 326 326 326 324 323 324 324 324 323 323 322 323 322 322 323 323
333 333 333 333 333 332 333 333 333 333 333 333 332 332 332 330 330 330 328 327 327 326 326 325 325 325 325 325 325 324 324 325 325 324 325 324 324 325 324 324 325 325 326 327 327 328 328 328 328 328 328 328 328 328 328 329 328 329 329 327 326 326 326 325 325 325 324 324 325 326 325 324 322 320 319 321 322 321 321 321 321 320 319 319 319
Wind_Speed
20 20 19 19 19 21 22 22 21 21 21 20 21 22 23 23 23 22 22 23 23 24 25 25 25 26 25 25 26 25 25 25 25 25 25 24 23 22 21 21 22 21 20 19 18 19 18 19 19 21 21 21 22 22 22 22 22 22 22 20 20 20 19 19 19 19 19 18 17 16 16 17 16 15 16 17 18 18 17 18 18 17 17 18 19
23 21 21 20 19 21 22 22 22 22 22 21 22 22 24 23 22 21 21 22 22 23 24 25 25 25 25 25 25 25 26 26 26 25 25 24 23 22 21 21 22 21 20 19 19 19 19 20 21 21 21 21 22 22 21 22 22 22 22 20 20 20 19 19 19 19 19 18 18 17 17 17 16 15 15 17 18 17 17 17 17 17 16 17 18
25 22 22 20 20 20 22 23 23 23 22 22 22 22 23 23 22 21 21 21 22 23 24 26 26 26 26 26 25 25 25 25 25 25 24 24 22 21 20 21 21 20 19 19 18 18 19 19 20 20 20 21 21 20 21 21 22 22 21 20 20 19 19 19 18 19 19 19 19 19 18 17 15 15 15 16 18 18 17 16 17 17 15 15 16
26 24 23 21 21 21 23 24 23 23 23 22 21 23 23 23 23 22 22 22 23 24 25 27 26 26 26 25 24 23 24 23 23 23 23 22 21 19 18 19 20 19 18 18 18 18 18 18 19 19 19 19 19 19 20 21 21 21 19 18 19 20 20 19 17 19 19 20 21 20 19 17 16 15 14 15 17 18 17 16 16 16 14 14 14
27 26 24 22 22 23 24 25 25 24 23 21 21 23 23 23 23 22 23 23 25 25 26 27 26 25 25 25 23 22 22 22 22 21 22 21 19 18 17 17 18 19 18 18 18 17 17 18 18 18 18 18 18 18 18 19 19 18 16 15 16 16 17 18 16 16 19 21 21 21 19 18 16 15 13 13 14 16 16 14 14 15 15 14 14
27 27 25 24 23 24 25 25 25 24 23 21 22 23 23 23 23 23 24 25 26 26 26 26 25 24 23 23 23 22 22 21 21 21 21 19 19 17 17 16 17 18 17 16 17 17 17 17 18 17 17 17 16 16 17 17 16 16 15 13 12 11 10 13 14 13 17 22 21 20 19 17 15 14 13 12 12 14 15 12 12 14 14 14 14
29 28 26 25 24 25 25 26 25 24 23 21 23 23 24 23 23 24 24 25 26 26 26 25 24 23 22 21 22 22 22 21 21 20 19 18 18 17 17 16 17 17 16 15 15 15 17 17 16 16 16 16 16 15 15 15 15 14 12 11 9 8 6 9 11 11 15 20 20 19 18 17 15 14 13 13 13 13 13 12 12 13 13 13 14
29 28 27 26 25 25 24 25 25 24 22 22 23 24 24 23 23 24 24 25 25 25 25 24 22 21 21 21 22 22 22 21 21 20 19 18 18 17 17 17 16 16 16 15 13 15 17 17 16 15 15 15 15 15 14 14 13 12 10 9 6 4 5 8 8 9 14 17 17 17 17 17 17 16 14 13 14 14 13 12 12 12 13 13 13
29 28 27 27 26 26 25 25 25 24 22 22 23 24 23 23 23 23 23 23 24 24 23 22 20 20 20 20 21 22 21 20 20 19 18 19 18 17 17 17 16 15 15 14 13 15 16 16 16 15 15 16 15 15 14 13 12 11 9 8 5 3 5 9 9 10 13 14 15 15 16 17 17 16 15 14 14 14 14 15 13 13 13 12 12
28 27 28 28 26 26 25 25 25 24 22 22 24 24 23 22 22 22 23 22 22 22 21 20 19 19 18 18 20 20 19 18 19 19 18 17 18 17 17 16 14 13 14 13 13 14 15 16 16 16 16 17 15 14 13 13 12 11 10 8 6 5 8 11 11 12 12 14 14 15 16 16 16 16 15 15 14 14 14 14 14 13 13 13 12
28 27 28 27 26 26 25 25 25 24 22 23 24 24 23 22 22 21 22 22 21 20 20 19 19 18 17 16 18 19 18 18 18 17 15 15 17 17 17 15 13 13 14 14 13 13 15 16 17 17 17 16 15 14 13 12 11 12 11 8 7 8 11 12 12 13 13 14 13 15 18 17 16 15 15 15 14 15 15 14 14 13 12 13 13
26 27 28 27 26 25 25 25 25 24 22 23 23 23 22 21 21 21 21 21 21 20 19 18 18 18 16 16 17 18 17 17 16 14 13 14 17 17 16 15 13 13 14 13 13 13 15 17 17 17 16 15 15 14 13 12 11 12 12 9 8 10 12 12 12 13 13 13 13 15 18 16 16 14 14 14 14 14 14 14 14 13 13 12 12
26 27 26 26 25 25 25 25 25 23 23 22 22 22 21 21 20 20 20 20 20 19 19 18 18 17 16 16 16 16 16 15 13 12 12 14 15 16 15 14 13 13 12 12 11 12 14 17 17 17 16 14 14 13 13 12 12 13 13 10 9 11 11 11 12 13 13 12 12 14 16 16 15 14 14 14 14 14 13 13 13 13 13 12 12
27 26 26 26 25 24 24 25 24 23 23 22 22 22 20 19 20 20 19 19 19 19 19 18 18 17 17 16 16 15 15 14 13 13 13 13 14 15 14 13 13 12 11 11 11 12 13 16 17 16 15 14 13 12 12 12 12 13 13 10 10 11 11 11 12 12 12 12 13 14 15 15 15 14 13 13 13 13 13 13 12 13 13 13 13
27 26 26 26 25 23 23 24 23 22 22 22 22 22 20 19 20 20 19 19 18 18 18 18 18 17 17 16 16 15 14 14 14 14 14 14 14 14 14 13 12 12 12 11 11 12 13 15 16 15 14 13 12 11 11 11 11 13 13 11 10 11 11 11 11 11 12 12 13 13 13 14 13 13 13 13 13 13 13 12 12 13 12 11 11
27 27 26 26 24 23 22 23 22 22 21 22 23 22 20 19 19 19 19 18 18 18 17 17 18 17 17 17 16 16 15 14 15 15 15 14 14 14 13 13 13 12 12 11 11 12 12 14 15 15 14 12 11 11 10 11 11 12 13 11 10 11 11 11 10 11 12 12 12 11 12 13 12 12 13 12 12 12 12 12 12 12 11 11 11
26 26 26 25 24 23 22 22 21 21 21 22 23 23 21 18 19 19 18 17 17 17 17 17 17 17 17 16 16 15 15 14 15 15 15 13 12 12 12 13 13 13 12 12 12 11 11 13 15 14 13 12 11 10 10 10 11 12 13 10 9 11 12 10 10 11 11 11 10 9 11 12 12 12 12 12 12 11 12 12 11 10 11 12 12
25 26 26 25 23 22 22 21 21 21 22 22 22 23 20 18 18 17 16 16 16 16 16 17 16 16 16 15 15 14 14 13 14 14 14 13 12 11 11 12 13 14 12 11 11 10 11 12 13 13 12 11 10 9 9 10 11 11 12 10 8 11 13 11 10 11 10 10 9 10 10 10 12 13 11 11 11 11 11 11 10 11 11 12 12
25 25 25 24 24 23 22 21 21 22 22 22 23 23 20 17 16 15 15 16 16 16 15 14 14 15 15 14 14 13 13 12 13 13 12 11 11 10 10 12 13 13 12 11 11 10 10 9 11 11 11 10 9 9 9 10 10 10 11 10 9 10 13 11 10 10 10 10 9 10 10 9 12 13 11 11 11 11 10 10 10 11 11 12 12
25 24 24 24 23 23 22 21 22 22 23 23 23 22 19 16 15 15 15 17 17 15 14 13 13 15 15 14 14 13 13 12 11 11 11 10 10 10 10 11 12 12 12 12 11 10 9 7 8 9 9 9 8 8 8 8 8 9 10 10 9 10 13 11 10 10 10 10 10 10 10 10 11 12 12 11 11 10 10 11 10 10 11 11 11
24 23 24 23 23 22 23 23 23 23 23 23 22 21 18 16 14 15 16 17 16 14 13 13 14 15 15 14 14 13 12 12 11 10 10 10 9 9 8 10 11 11 11 11 10 9 9 8 7 7 7 8 8 7 7 6 6 8 9 10 9 11 14 13 11 10 10 10 10 10 10 11 11 11 11 11 11 10 10 10 9 9 10 9 9
23 23 23 23 23 23 23 24 24 23 23 23 22 20 17 15 14 15 16 17 16 15 14 14 16 16 15 15 14 12 12 11 11 10 9 9 8 8 8 9 10 10 11 11 10 9 9 9 8 6 6 8 8 6 5 4 5 7 8 9 10 11 14 13 12 11 11 11 11 11 11 12 12 10 9 10 10 11 10 9 8 9 9 9 8
23 24 23 23 24 24 24 24 24 23 23 22 22 19 17 15 15 16 17 17 16 15 16 16 16 17 16 15 14 12 11 10 9 8 8 9 8 8 9 11 10 10 12 13 12 11 11 10 8 7 7 7 6 4 4 4 4 6 7 8 9 11 14 13 12 11 10 10 11 12 12 12 11 10 10 10 9 10 9 8 8 8 9 9 9
24 25 24 23 24 24 24 24 23 23 23 23 23 21 19 17 17 18 18 18 16 16 16 16 15 16 16 14 13 12 11 10 9 8 8 8 8 8 10 12 12 12 14 15 14 13 12 11 9 8 7 6 4 4 4 4 4 6 7 8 9 12 14 14 12 11 10 10 11 12 11 11 11 13 12 10 8 9 8 7 8 9 8 8 8
26 25 24 24 23 23 24 24 23 24 24 24 23 21 20 19 19 19 19 18 16 17 16 14 14 14 14 14 13 13 12 11 10 10 9 7 9 10 10 11 12 12 13 14 13 13 12 11 10 9 8 6 4 4 4 3 4 7 7 9 10 12 14 14 13 12 11 12 13 12 10 11 13 15 13 10 8 7 6 5 7 9 9 8 8
25 24 25 24 23 23 24 25 24 24 24 23 22 20 19 19 20 20 19 18 17 17 14 13 14 14 14 14 14 13 12 12 11 10 8 6 8 10 11 11 11 11 12 12 12 12 11 11 10 9 7 5 3 4 4 3 4 7 7 8 9 11 12 13 13 13 13 13 14 12 9 11 14 15 13 10 8 6 5 4 5 8 9 8 8
25 25 27 26 25 26 26 25 24 23 23 21 20 20 20 20 20 20 19 18 18 16 14 13 13 14 14 14 13 13 13 13 11 9 7 7 8 9 10 11 11 11 11 10 11 10 9 9 8 7 6 3 3 4 4 3 3 4 5 6 7 9 11 13 14 13 13 14 14 12 9 12 14 14 12 10 8 6 5 3 5 7 8 8 8
27 27 29 30 29 28 27 26 25 24 23 22 21 20 20 20 20 20 19 18 17 15 14 13 14 14 14 13 13 13 13 12 10 9 7 8 8 9 9 10 10 10 9 9 8 8 7 6 5 5 4 3 3 3 3 3 3 2 2 4 5 6 9 13 14 13 13 13 14 12 10 11 13 13 11 10 8 6 5 5 6 6 7 8 7
30 31 31 31 30 31 30 28 27 26 25 24 22 21 21 21 21 20 18 17 16 15 14 14 14 15 14 14 13 12 12 11 10 9 8 8 9 9 9 8 8 7 7 6 5 6 5 4 4 3 3 4 4 3 3 3 2 1 1 2 3 4 7 11 14 13 13 13 14 12 10 11 13 12 8 9 9 6 6 6 7 7 6 6 7
33 34 34 32 32 33 33 32 30 28 25 24 23 22 21 22 21 19 17 16 16 15 14 14 14 15 15 14 13 13 12 12 10 9 8 8 8 8 8 7 6 5 5 4 3 3 3 3 3 3 4 4 4 4 4 4 3 2 2 1 3 4 6 10 13 13 13 13 14 13 10 10 12 10 7 8 9 7 6 6 6 6 6 5 6
34 33 33 32 32 31 29 30 30 27 25 24 23 22 22 22 21 19 17 15 15 15 14 14 14 14 14 14 13 13 13 12 11 9 9 9 8 7 6 5 5 5 4 3 2 2 2 2 3 3 3 5 6 5 5 5 5 3 3 3 3 5 7 10 13 14 13 14 15 13 11 11 12 9 8 10 8 7 7 6 4 5 6 6 6
31 33 33 31 31 29 26 26 27 25 24 24 24 22 21 21 20 19 17 15 15 15 14 13 14 14 14 13 13 13 14 13 12 10 10 9 8 6 6 5 5 5 5 4 2 2 2 3 3 4 4 6 7 7 6 6 6 5 5 4 5 7 8 10 13 15 14 14 15 14 12 12 13 11 10 9 6 6 7 5 4 5 5 6 6
30 30 31 31 32 31 28 26 25 24 23 24 24 22 20 21 20 18 16 15 15 15 13 13 14 14 14 13 12 13 14 14 12 11 10 9 8 8 7 6 6 6 6 5 4 3 4 4 4 5 6 7 8 7 7 6 7 7 7 6 5 7 8 9 11 14 14 14 14 15 13 12 13 12 9 8 5 4 6 5 3 5 5 5 5
31 27 27 29 30 30 28 27 25 24 24 24 24 21 19 20 20 18 17 16 16 14 13 13 13 14 14 12 12 13 13 12 11 10 10 9 9 9 8 7 6 6 6 5 5 5 5 5 6 7 7 7 7 7 7 8 8 8 8 7 6 7 9 9 10 13 14 14 14 14 13 12 11 11 8 7 6 4 6 4 2 3 4 4 4
29 29 28 28 28 28 28 28 27 26 25 25 24 21 19 20 19 18 17 15 14 13 13 13 13 14 13 11 11 12 11 10 10 10 10 10 10 9 8 8 7 6 6 6 6 6 5 5 7 8 8 7 7 8 9 9 9 8 8 7 7 8 9 9 11 13 14 14 15 14 13 11 10 10 9 7 6 4 4 5 4 3 2 3 3
31 31 29 26 26 27 28 29 28 28 27 26 24 21 19 19 19 18 16 14 13 12 12 12 12 13 12 11 12 11 9 8 8 9 10 10 10 9 8 8 8 7 6 6 7 6 6 7 8 7 7 9 9 9 9 9 9 8 7 6 6 7 9 10 12 13 14 14 15 14 12 11 10 9 9 7 6 4 3 3 4 2 2 3 1
34 33 30 27 27 27 27 28 28 29 28 27 25 22 20 20 19 17 15 14 12 11 10 11 10 11 10 10 10 10 8 7 8 8 9 9 9 9 9 8 8 7 6 7 8 8 8 9 9 7 7 9 10 9 9 9 8 7 6 5 5 6 8 9 11 12 13 13 14 13 12 10 10 9 8 7 6 4 4 4 4 4 3 2 1
32 32 31 29 29 28 27 28 28 28 28 27 25 23 21 20 19 17 15 13 11 10 10 10 10 9 9 9 9 8 8 8 8 9 10 10 11 10 9 8 8 8 7 9 9 10 10 8 9 9 7 8 10 9 9 9 8 8 8 6 5 6 7 7 9 11 12 12 12 12 11 10 9 9 8 7 7 6 6 7 6 6 5 4 4
28 29 28 28 29 28 27 27 27 27 27 27 26 23 21 20 19 17 14 12 11 10 10 10 8 7 7 8 8 8 8 9 9 11 12 11 11 10 9 8 9 9 10 11 11 11 10 9 9 9 8 8 9 10 11 11 11 12 11 10 8 7 7 6 7 9 10 10 11 10 10 9 8 8 8 7 6 7 7 7 7 6 6 5 5
25 26 26 26 27 27 27 27 27 28 28 27 26 24 21 19 18 16 15 13 11 11 10 9 7 5 6 8 9 9 10 10 10 11 12 11 10 9 9 10 10 10 11 11 12 11 10 10 9 9 10 9 9 11 12 13 16 17 15 13 11 10 9 8 6 7 8 8 9 9 8 7 7 7 7 7 6 7 7 7 7 6 6 6 7
25 26 26 26 26 28 29 28 28 28 29 28 28 25 23 20 18 16 15 14 12 11 9 8 7 7 8 10 10 10 10 9 10 11 11 10 9 8 9 10 10 10 10 10 10 10 10 11 10 10 12 13 13 12 13 16 17 16 15 16 15 13 11 9 7 5 6 7 7 7 7 6 6 6 7 6 6 6 6 7 6 5 5 6 7
25 26 26 26 26 27 29 29 29 28 30 31 29 27 25 23 20 18 16 14 11 9 8 8 8 10 11 11 10 10 10 9 9 10 10 9 8 8 9 10 10 11 11 10 10 9 10 11 12 12 13 15 15 15 15 12 11 11 11 11 13 12 11 9 8 6 3 4 5 6 6 6 6 6 7 7 6 6 5 5 4 3 3 4 5
24 25 25 25 26 27 28 29 29 29 30 31 30 28 26 23 20 18 15 13 10 8 8 10 11 11 11 10 9 10 10 9 9 9 9 8 7 9 10 10 11 12 12 12 10 10 11 11 12 13 15 16 15 17 14 6 8 14 10 5 4 5 7 8 9 7 4 3 3 5 6 7 7 7 7 7 6 6 5 4 3 3 3 3 5
22 24 25 26 26 27 29 29 30 30 29 29 29 27 24 21 18 16 14 13 11 10 11 12 12 12 11 10 10 10 10 10 10 9 8 8 8 10 11 11 11 10 9 10 10 10 11 12 12 13 15 16 16 17 11 5 12 14 7 3 2 2 2 4 7 7 4 3 1 3 5 6 8 7 7 7 6 5 4 4 4 3 3 3 4
22 25 26 27 27 27 28 29 29 29 28 28 26 24 22 20 17 15 14 13 13 14 15 15 14 13 12 11 11 11 11 11 10 9 8 9 9 9 9 9 8 8 6 7 8 9 10 12 13 13 13 14 15 17 12 8 12 10 6 5 3 1 1 3 5 5 5 4 2 1 3 4 6 5 5 5 5 4 2 3 3 3 2 1 1
21 23 25 26 26 26 26 26 26 26 26 25 24 23 22 21 19 18 17 16 16 17 18 18 16 15 14 13 13 12 12 12 10 9 9 9 10 9 8 7 7 7 6 7 8 9 10 11 12 12 12 12 13 17 14 12 14 9 5 6 2 2 6 7 4 1 5 6 3 2 1 3 6 5 6 5 3 2 1 1 2 1 3 4 3
20 21 23 25 25 25 24 23 23 24 23 23 23 23 22 21 20 21 21 20 20 19 19 18 17 15 14 14 15 14 11 10 9 9 9 8 9 9 8 7 7 7 7 8 8 9 9 10 10 10 11 11 12 16 16 15 16 10 5 7 4 4 12 11 5 3 3 3 4 5 4 6 7 7 7 5 3 2 3 4 5 5 6 6 6
20 21 23 24 24 24 23 22 21 21 22 22 22 22 22 22 21 22 21 22 22 21 20 18 15 14 13 13 14 13 11 9 9 9 8 8 8 7 7 7 7 7 7 7 7 7 8 9 9 9 9 10 11 14 16 16 18 12 7 7 5 7 14 12 9 9 5 2 4 6 8 10 10 9 7 6 5 4 6 7 8 8 9 9 8
19 20 21 22 23 23 22 21 20 21 21 21 21 20 22 22 22 23 22 22 22 21 20 17 15 14 14 14 13 13 11 9 9 9 8 7 6 6 6 6 6 6 6 7 7 6 7 8 9 9 9 10 10 12 15 17 19 15 9 6 8 12 13 10 12 13 7 4 3 3 7 10 11 10 8 6 7 7 8 9 10 10 10 10 10
19 19 19 20 21 21 22 22 21 21 21 21 20 19 21 22 23 25 25 23 22 21 19 17 16 16 16 16 15 13 11 10 8 8 9 8 6 5 5 5 4 4 5 6 6 5 6 7 7 8 8 9 9 11 13 16 17 15 11 11 15 16 12 8 12 14 10 7 5 4 7 8 8 9 7 6 8 8 8 9 10 10 10 10 10
18 19 19 20 21 21 23 23 21 21 21 20 19 20 22 24 25 27 26 24 24 22 20 19 19 18 18 17 15 13 11 10 9 8 8 6 6 8 7 5 3 3 4 6 5 5 6 6 7 8 8 8 8 9 11 14 15 13 11 12 17 18 12 10 14 16 13 9 7 6 9 10 9 8 6 6 7 8 8 8 9 9 10 10 10
Wind_Direction
159 154 157 159 157 155 153 150 149 150 147 141 138 134 131 128 126 124 123 125 126 128 126 125 124 125 124 124 124 123 122 121 120 120 120 118 115 113 111 107 105 107 107 105 104 104 102 103 104 104 104 104 105 104 104 104 103 101 96 90 89 88 83 80 79 80 81 82 84 86 87 89 86 80 76 79 88 92 91 91 89 82 77 76 77
155 154 157 160 160 156 154 152 152 152 148 144 139 136 133 130 128 126 127 128 130 128 126 124 121 121 120 120 120 119 119 119 119 118 117 115 113 112 108 104 104 106 106 104 103 104 104 106 106 105 106 107 106 106 108 106 105 101 96 90 90 90 87 82 79 80 82 84 86 89 90 93 90 81 78 79 86 92 91 89 87 83 78 78 77
150 153 159 159 160 156 156 154 155 153 149 145 141 139 134 131 129 129 131 131 131 127 124 123 122 122 121 120 120 119 118 117 117 115 113 112 111 109 105 103 106 107 105 105 105 105 107 108 107 107 108 108 107 109 109 109 108 101 94 93 92 92 89 82 75 77 85 91 93 95 95 95 91 86 80 74 81 90 90 90 87 83 80 79 78
151 154 157 158 159 157 157 156 156 153 148 145 143 140 136 132 130 130 131 130 130 126 125 124 124 124 122 122 120 119 116 116 115 113 112 111 111 109 106 104 107 110 108 108 107 108 110 109 109 110 109 108 108 110 111 112 111 101 96 96 93 90 85 78 71 72 87 95 95 96 97 97 94 92 87 73 73 78 80 85 87 85 83 79 78
151 152 155 157 158 156 157 157 156 153 148 145 145 142 137 133 131 130 128 129 129 127 126 124 124 123 121 120 120 120 118 116 115 115 115 113 112 110 109 106 105 110 112 112 110 111 112 112 112 112 110 110 110 111 113 113 109 103 101 102 96 91 81 76 73 71 87 96 94 94 95 97 96 95 95 84 77 75 72 74 81 85 83 79 76
150 152 154 156 157 156 157 157 155 151 148 146 146 143 137 134 132 129 127 129 130 130 128 125 123 120 118 118 119 120 119 117 115 113 112 112 113 111 111 109 107 109 109 111 113 111 110 111 112 111 110 110 111 111 113 110 106 104 102 105 106 104 82 73 78 75 89 98 98 99 97 96 97 96 96 92 89 86 79 73 77 80 80 79 76
150 152 154 156 156 156 156 155 154 150 148 148 148 143 138 135 133 129 128 130 131 132 130 127 124 121 118 118 119 120 121 120 118 116 116 116 114 112 112 113 112 111 109 110 111 111 111 112 112 111 111 113 114 112 110 107 106 104 99 100 101 100 86 79 84 85 95 100 102 104 103 101 100 97 97 93 92 92 87 80 80 80 80 79 78
151 153 155 156 153 154 156 154 153 150 149 150 149 144 140 137 133 130 130 131 132 132 131 128 123 122 121 122 123 124 126 125 125 123 123 120 117 117 119 119 116 114 113 111 105 109 117 117 117 114 114 117 117 115 111 108 106 102 96 91 91 94 102 107 107 106 104 104 107 110 111 109 103 97 96 96 94 92 91 92 87 79 78 78 78
151 153 154 152 150 154 155 153 152 150 151 152 149 145 141 137 135 132 131 132 133 133 131 127 123 124 124 126 127 128 129 129 130 130 129 127 125 126 127 126 121 116 114 112 101 108 121 122 122 119 118 122 121 119 115 110 104 97 86 78 90 95 107 127 133 124 112 108 110 111 111 110 104 98 96 98 97 93 94 96 91 86 82 78 76
150 153 153 149 149 154 154 153 153 152 153 152 149 146 142 138 136 133 133 134 134 133 130 128 127 127 127 129 132 132 131 132 136 137 136 133 132 129 130 131 124 118 114 112 102 106 123 128 126 124 124 125 122 118 113 105 96 86 75 74 92 88 100 125 131 122 115 111 110 106 104 103 99 99 98 98 98 95 93 91 89 91 88 81 80
150 152 150 148 150 153 152 154 154 155 154 151 149 146 142 139 137 136 135 135 135 135 133 133 132 131 131 135 137 136 134 136 140 141 137 135 136 132 130 132 127 121 117 114 105 106 126 134 133 131 129 125 121 116 108 99 90 77 69 80 98 97 106 118 120 116 115 111 109 106 106 102 98 98 101 100 98 97 95 91 88 90 88 84 83
149 150 149 148 150 152 152 155 156 156 153 150 148 145 143 141 140 138 136 136 136 136 138 138 136 135 136 140 142 140 138 140 142 141 135 134 139 136 133 132 126 122 118 116 107 105 123 136 136 135 130 123 119 113 106 96 84 73 71 88 105 111 114 114 114 114 114 110 107 110 111 108 104 102 102 102 100 100 97 92 89 89 88 85 83
147 148 148 148 149 152 154 157 157 155 152 150 147 145 145 143 142 140 138 138 137 138 140 142 140 139 141 143 144 142 141 142 142 140 136 136 140 140 138 134 125 120 120 119 112 107 120 135 138 135 131 125 119 111 105 95 83 73 75 96 116 124 122 115 112 111 111 105 102 111 115 112 109 106 105 104 101 100 98 93 90 88 85 83 85
145 147 148 148 149 153 156 157 157 154 152 149 147 147 145 145 146 144 141 140 140 141 143 146 146 145 144 144 144 143 142 141 139 137 136 139 141 142 141 139 133 126 124 121 116 113 122 136 139 137 134 129 123 114 106 95 85 77 81 102 123 133 130 119 113 109 109 104 100 107 114 117 117 113 107 105 104 101 99 95 91 89 88 90 91
143 146 148 148 149 153 156 156 156 154 152 150 149 150 148 149 152 150 147 144 143 145 147 149 149 147 146 144 142 141 142 140 136 133 134 138 141 143 143 144 141 135 131 124 119 119 124 138 142 140 140 135 127 118 108 97 87 82 87 105 127 141 138 125 117 111 109 105 103 102 107 114 115 113 109 106 105 102 100 98 95 92 92 94 93
141 145 147 147 148 151 153 156 157 154 152 152 154 155 153 154 157 156 151 148 146 148 150 150 147 143 141 140 139 139 140 139 135 134 133 134 138 141 139 140 141 138 135 129 122 119 124 139 147 146 144 140 130 120 111 98 89 87 90 104 130 145 145 132 121 116 112 108 107 104 106 113 115 113 112 108 105 105 103 100 97 97 97 94 90
141 144 145 145 147 150 154 158 157 154 154 156 160 161 159 158 161 159 153 149 149 150 150 148 143 136 135 135 135 136 137 137 137 138 136 134 134 137 135 135 138 137 135 132 123 118 123 138 150 152 147 142 132 122 114 100 90 90 92 100 130 149 151 140 125 118 115 112 110 104 106 119 126 117 111 109 107 108 107 103 98 99 99 95 91
140 142 142 144 147 151 157 157 155 156 156 159 164 165 162 161 163 161 153 149 149 150 149 146 139 134 135 136 134 134 136 138 139 141 139 135 133 136 134 134 139 137 135 133 127 122 122 132 147 156 152 142 134 127 118 102 90 92 94 92 118 150 157 148 132 123 118 116 112 107 104 110 119 116 114 112 109 106 105 102 97 95 96 96 94
138 140 141 143 147 153 158 157 157 159 160 163 167 168 165 163 162 160 153 148 148 150 148 143 137 136 140 139 136 134 135 138 139 140 140 136 133 133 130 132 139 139 138 137 132 128 126 130 142 154 156 146 136 130 119 102 90 95 98 89 100 140 158 156 139 129 122 118 116 112 107 104 114 121 119 112 109 108 106 102 96 96 98 97 95
137 140 142 145 150 153 157 157 160 163 166 168 169 168 166 163 161 160 153 149 151 150 146 141 140 141 144 144 139 134 135 137 139 140 141 140 134 129 128 131 136 140 142 142 139 136 138 139 138 145 153 152 137 127 119 103 93 100 103 94 101 135 154 161 150 136 129 124 121 117 112 108 113 122 119 115 116 112 106 103 100 99 100 100 101
138 141 143 149 152 154 156 159 163 166 169 170 169 167 165 162 161 160 154 153 154 150 149 147 146 146 148 148 144 140 139 139 139 142 142 140 132 124 127 130 130 136 139 139 142 144 146 145 135 129 141 150 138 125 116 98 92 102 107 99 107 141 153 160 159 149 140 132 127 124 117 111 113 120 123 125 124 115 107 107 108 102 101 106 109
139 142 147 152 154 155 157 161 166 168 170 170 168 166 164 162 162 161 157 158 158 156 158 156 154 153 154 153 150 148 145 142 141 143 142 136 128 121 125 127 126 131 129 126 128 129 130 132 132 127 131 141 135 119 102 83 90 103 113 107 108 143 157 162 165 159 149 140 133 131 123 119 125 129 127 128 124 119 120 120 116 111 112 113 108
139 145 151 156 156 156 159 165 168 168 169 169 168 167 166 164 166 164 160 163 165 167 166 163 161 158 158 157 154 154 150 144 141 140 138 133 125 121 125 122 121 121 115 111 110 109 113 122 131 133 132 133 126 103 71 59 92 111 120 117 112 138 159 167 170 165 153 146 141 136 129 127 133 131 124 124 118 113 121 123 117 117 120 119 116
143 149 153 157 157 157 161 166 167 168 170 172 172 171 167 167 170 168 166 168 171 175 172 166 163 159 160 159 157 157 152 144 141 143 142 139 131 128 129 122 118 113 108 107 106 105 108 115 121 125 126 121 109 80 53 53 112 136 135 132 125 140 162 171 174 170 159 151 145 142 137 132 131 131 129 128 116 106 113 122 124 125 122 121 122
148 149 149 155 157 158 162 165 168 173 177 178 176 172 169 171 175 176 173 171 174 176 173 166 161 160 161 160 160 159 155 149 150 155 153 146 135 131 130 126 122 115 110 110 107 105 106 111 114 120 125 120 104 71 57 71 137 156 152 147 141 145 162 173 177 173 165 157 153 156 150 137 134 135 135 132 123 108 105 120 134 135 130 129 125
149 145 144 153 161 162 165 167 172 179 182 181 178 173 173 177 181 182 178 174 178 176 170 167 163 164 164 161 162 163 161 157 157 160 156 143 132 131 134 135 133 121 116 115 113 111 110 113 116 124 130 122 96 70 70 92 146 164 160 156 155 154 163 175 182 177 168 160 160 167 156 141 139 137 136 134 131 111 96 114 138 139 136 133 126
147 144 148 159 166 165 168 171 175 182 184 184 181 178 180 186 186 185 183 179 181 177 172 172 169 166 165 163 166 169 167 162 161 162 156 146 140 142 142 141 138 130 126 122 120 120 117 118 122 130 133 113 75 67 73 91 131 160 157 155 161 165 171 181 185 179 171 163 166 173 162 148 143 140 137 134 135 114 91 115 137 138 133 127 123
146 151 159 167 171 169 171 177 181 185 187 188 187 183 185 191 189 188 188 185 184 179 175 177 174 169 166 167 172 174 172 168 168 170 166 158 158 159 152 146 144 141 139 133 127 123 116 115 120 131 121 88 73 75 84 96 110 130 144 162 165 164 174 186 188 181 173 167 170 175 167 154 145 146 142 133 137 115 95 111 117 123 126 127 131
153 162 167 172 175 174 177 182 185 187 189 192 193 189 191 194 190 190 191 190 188 183 182 183 179 173 171 172 177 180 180 177 176 177 174 168 169 168 161 155 151 148 144 136 128 118 107 108 121 123 98 87 95 100 118 124 117 112 115 171 179 164 172 188 191 184 175 171 174 175 167 152 149 158 151 135 138 120 112 116 102 101 109 123 130
165 169 172 177 179 181 182 183 185 189 190 193 196 192 194 196 193 193 194 193 191 188 190 190 182 177 176 177 181 187 187 184 182 182 180 179 178 173 171 170 164 156 148 142 144 134 112 110 126 119 100 109 122 121 134 148 154 142 124 155 188 183 179 189 192 183 175 173 175 173 163 152 159 169 154 138 137 125 133 132 105 96 96 105 110
172 172 175 179 180 183 182 181 184 187 189 193 197 194 192 196 196 195 198 196 192 193 195 193 186 181 180 179 183 191 192 190 191 191 190 191 186 181 188 194 192 186 177 177 179 174 152 125 131 127 123 136 140 133 132 152 168 146 137 164 186 184 180 187 192 184 175 175 176 171 162 160 169 169 152 145 132 118 141 149 126 111 104 103 102
177 174 177 179 180 183 180 180 185 187 190 194 198 196 192 197 200 199 201 200 195 197 197 192 188 185 183 184 190 196 196 194 195 197 199 199 197 198 202 207 213 211 205 203 182 158 152 145 141 135 140 144 144 142 133 149 169 144 132 160 176 177 181 186 190 186 179 178 178 172 167 167 171 168 162 163 141 108 137 167 161 136 119 110 110
180 178 177 180 183 185 183 185 188 189 193 196 198 198 197 200 203 204 204 201 198 201 197 189 189 190 188 192 200 200 195 194 195 198 199 203 208 206 204 209 211 211 210 201 176 148 143 147 143 136 140 141 141 143 139 149 164 149 139 151 160 170 178 178 185 187 183 181 179 176 174 169 170 170 170 175 173 126 137 174 177 146 138 120 115
179 181 179 182 185 185 184 186 188 191 195 199 200 200 201 203 205 207 204 201 201 201 198 191 189 192 193 195 199 195 191 193 197 199 200 205 210 206 208 210 202 204 201 185 170 152 142 134 137 136 133 136 142 145 149 155 157 151 145 145 148 162 169 167 176 184 185 183 181 182 179 172 168 171 171 172 180 157 139 154 149 155 160 133 127
180 183 184 183 184 183 184 186 188 191 196 201 201 201 203 204 205 205 202 200 201 201 200 195 191 192 195 195 192 189 189 196 203 203 203 205 205 205 206 202 196 192 184 175 163 157 150 136 138 143 136 139 149 150 155 159 155 150 146 146 155 166 167 164 170 179 185 185 183 184 182 178 173 172 174 171 175 169 140 137 139 181 187 129 151
184 185 186 183 183 185 184 186 187 191 196 200 200 201 203 203 204 203 198 196 200 203 201 197 195 195 197 198 195 195 198 203 203 201 201 202 201 199 192 190 190 180 173 169 159 162 164 146 141 149 149 150 156 157 158 161 157 150 146 153 162 166 164 161 169 177 181 183 184 184 182 182 181 179 180 176 176 174 152 143 132 141 100 86 89
186 184 184 184 184 184 184 186 188 192 196 198 198 201 202 201 203 201 196 196 202 207 203 200 199 199 202 202 198 201 206 205 200 196 194 196 195 188 181 179 178 170 167 166 161 166 166 153 143 146 156 157 160 160 158 162 158 145 137 140 144 150 154 158 171 179 179 181 184 184 183 185 186 186 187 182 184 180 169 172 144 133 142 119 135
183 181 184 186 184 184 184 186 189 191 194 196 196 199 198 198 201 200 196 199 206 210 208 210 207 204 203 200 196 197 200 194 189 184 181 186 187 182 178 175 171 166 167 168 165 163 162 158 149 146 157 163 162 160 159 159 143 121 109 104 112 132 142 151 167 177 179 182 185 184 187 192 191 187 186 184 186 183 180 186 170 158 183 193 197
179 180 183 182 182 184 184 187 188 188 192 195 195 196 193 193 196 197 199 203 208 210 213 215 207 201 196 192 192 189 185 179 172 171 172 179 182 178 173 170 171 164 163 165 161 160 158 158 159 152 153 162 165 160 156 146 123 105 95 86 84 95 109 130 158 174 179 184 185 187 191 193 192 186 183 184 183 185 186 190 190 183 196 204 212
177 179 181 180 181 183 183 185 186 186 189 191 192 192 188 189 192 195 201 204 206 207 211 211 201 197 194 186 181 175 173 168 162 167 175 178 177 173 165 166 171 163 162 163 158 159 154 156 167 158 151 155 160 162 158 141 117 100 92 88 81 79 88 107 131 162 179 188 186 187 192 189 183 181 181 188 189 193 195 196 205 210 216 220 223
177 178 179 180 182 183 183 182 184 185 186 187 189 189 186 184 186 191 198 200 201 203 203 201 195 187 177 169 165 163 165 165 162 169 177 177 170 166 164 164 167 164 164 162 159 159 154 159 168 156 151 151 153 163 159 139 117 101 93 89 85 84 90 100 108 128 163 181 187 186 189 184 175 173 178 187 190 193 198 201 208 217 226 232 230
178 178 178 180 183 184 183 181 181 183 185 187 188 188 188 185 185 187 191 193 193 194 190 186 178 166 156 152 154 156 159 161 162 170 177 176 171 170 171 166 166 170 169 162 161 163 160 165 168 159 156 153 152 158 153 137 119 114 109 96 86 87 92 95 100 103 120 162 189 197 195 188 179 176 177 183 187 189 192 196 202 216 234 233 230
177 178 179 180 183 183 183 182 181 181 184 188 188 188 189 189 188 185 185 184 177 175 174 168 163 156 150 150 154 153 156 160 160 169 175 177 178 172 170 169 172 177 175 167 165 168 167 172 175 169 163 155 155 158 155 148 138 128 115 103 85 84 90 83 84 91 104 128 169 192 196 195 188 187 185 182 188 194 195 205 215 226 246 243 233
177 180 181 181 183 184 185 183 182 181 183 186 187 188 187 187 188 184 181 175 161 158 156 154 156 155 154 154 155 152 151 152 152 159 165 166 169 166 164 168 172 177 180 174 169 172 177 179 180 178 170 160 160 166 170 176 158 141 113 92 55 38 98 81 73 72 95 126 126 168 184 195 194 196 190 181 186 191 199 222 234 241 244 247 241
180 183 184 183 183 184 185 183 181 180 181 183 183 182 179 179 179 174 173 167 158 156 154 154 158 161 161 159 156 152 145 139 136 141 146 151 155 155 157 161 163 169 178 183 181 181 185 183 183 186 183 175 171 176 185 187 172 155 126 124 90 31 202 119 100 69 78 96 67 133 189 189 180 177 159 155 173 179 194 222 233 254 238 209 241
183 186 186 185 184 184 183 182 179 178 180 180 179 176 175 175 174 169 167 163 160 163 160 157 160 163 161 156 152 149 144 139 136 135 134 138 143 142 144 146 151 163 174 189 195 193 189 187 191 192 191 191 186 184 191 194 186 171 144 162 161 203 173 140 127 68 82 90 76 78 48 102 122 114 108 114 124 132 116 161 156 105 104 98 98
182 184 186 185 184 184 182 181 178 177 179 179 178 178 177 176 178 176 173 168 165 168 167 161 161 161 159 156 153 151 150 147 147 146 139 138 143 143 144 146 154 166 175 186 193 195 191 187 194 197 194 199 200 195 197 197 193 194 204 217 262 211 170 155 154 160 111 92 90 96 81 79 92 92 94 92 78 89 96 112 113 101 106 108 109
177 180 184 183 183 182 180 181 179 178 179 179 179 181 181 179 179 177 175 173 170 169 169 166 164 165 165 164 160 158 159 155 151 151 149 148 149 152 157 163 169 172 175 178 182 188 187 184 189 195 196 203 210 207 204 200 196 197 208 225 244 189 170 166 163 148 121 112 109 94 88 91 96 96 92 76 69 92 102 106 111 110 111 112 112
174 177 180 179 180 180 179 180 180 179 179 178 179 182 185 183 179 175 172 173 172 169 167 165 163 164 161 159 158 160 161 156 148 147 154 157 152 153 161 169 177 178 178 177 178 183 183 184 187 188 192 198 206 212 210 205 199 199 199 180 160 158 158 157 151 135 112 120 128 94 96 99 97 94 92 85 84 96 106 106 111 112 111 111 110
174 176 175 173 174 176 178 180 180 179 179 181 182 184 186 183 177 172 170 169 168 166 164 160 157 156 151 150 152 155 160 158 148 145 154 161 162 162 160 165 179 181 181 184 186 185 179 181 184 183 185 189 193 204 210 207 202 205 202 171 153 151 145 140 143 133 115 104 102 102 104 100 91 84 87 98 99 102 108 110 111 113 113 112 108
172 174 173 171 171 174 177 178 179 179 179 184 187 184 184 182 177 173 170 167 164 163 160 155 154 153 151 153 152 149 152 150 143 142 150 165 182 178 170 176 197 195 188 193 194 186 179 177 179 177 178 183 185 187 197 203 201 202 202 183 168 162 158 163 161 150 137 126 118 108 101 97 89 84 85 92 101 107 108 110 112 111 111 111 108